Home   Weather   Alexandria   Past weeks
Flag for Egypt

Past Weather in Alexandria, Egypt — Yesterday and Last 2 Weeks

Now
52 °F

Passing clouds.


Feels Like: 51 °F
Forecast: 63 / 54 °F
Wind: 3 mph from South

Location: Alexandria / Nouzha

Current Time: Jan 18, 2019 at 1:36:02 am

Latest Report: Jan 18, 2019 at 12:00 am


Visibility: N/A

Pressure: 30.21 "Hg

Humidity: 82%

Dew Point: 46 °F

Location of AlexandriaLocation

Past Weather in Alexandria — Graph

°F

Alexandria Temperature Yesterday

Maximum temperature yesterday: 61 °F (at 11:00 am)
Minimum temperature yesterday: 52 °F (at 11:00 pm)
Average temperature yesterday: 58 °F

High & Low Weather Summary for the Past Weeks

 TemperatureHumidityPressure
High66 °F (Jan 4, 2:00 pm)94% (Jan 8, 4:00 am)30.24 "Hg (Jan 8, 4:00 am)
Low39 °F (Jan 10, 6:00 am)34% (Jan 15, 3:00 pm)29.71 "Hg (Jan 12, 8:00 pm)
Average54 °F71%30.03 "Hg
* Reported Jan 3 12:00 am — Jan 18 12:00 am, Alexandria. Weather by CustomWeather, © 2019

Note: Actual official high and low records may vary slightly from our data, if they occured in-between our weather recording intervals... More about our weather records

Advertising

Alexandria Weather History for the Previous 24 Hours

Scroll right to see more
 ConditionsComfort  
Time TempWeatherWind HumidityBarometerVisibility
12:00 am
Fri, Jan 18
52 °FPassing clouds.3 mph82%30.21 "HgN/A
11:00 pm
Thu, Jan 17
52 °FPassing clouds.3 mph82%30.21 "HgN/A
10:00 pm55 °FPassing clouds.3 mph63%30.21 "HgN/A
9:00 pm57 °FPassing clouds.7 mph59%30.21 "HgN/A
8:00 pm57 °FPassing clouds.6 mph59%30.21 "HgN/A
7:00 pm57 °FPassing clouds.5 mph63%30.21 "HgN/A
6:00 pm57 °FPassing clouds.6 mph63%30.21 "HgN/A
5:00 pm61 °FScattered clouds.8 mph59%30.18 "HgN/A
4:00 pm61 °FScattered clouds.7 mph59%30.18 "HgN/A
3:00 pm61 °FScattered clouds.12 mph55%30.18 "HgN/A
2:00 pm61 °FScattered clouds.14 mph55%30.18 "HgN/A
12:00 pm61 °FScattered clouds.12 mph59%30.21 "HgN/A
11:00 am61 °FScattered clouds.14 mph59%30.21 "HgN/A
10:00 am59 °FScattered clouds.12 mph63%30.21 "HgN/A
9:00 am59 °FScattered clouds.12 mph55%30.18 "HgN/A
8:00 am57 °FScattered clouds.15 mph59%30.15 "HgN/A
7:00 am57 °FScattered clouds.16 mph59%30.15 "HgN/A
6:00 am57 °FPassing clouds.13 mph63%30.15 "HgN/A
5:00 am57 °FPassing clouds.16 mph63%30.12 "HgN/A
4:00 am57 °FPassing clouds.12 mph63%30.12 "HgN/A
3:00 am57 °FPassing clouds.14 mph55%30.12 "HgN/A
2:00 am55 °FPassing clouds.13 mph51%30.12 "HgN/A
1:00 am55 °FPassing clouds.14 mph59%30.12 "HgN/A
Weather by CustomWeather, © 2019

See weather overview